Hourly Data Report for September 06, 2010

IQALUIT CLIMATE
NUNAVUT

63°44'50.000" N
68°32'40.000" W
33.50 m
2402592
71321
XFB

Download Data

Hourly Data (September 2010)
Hourly Data Report for September 6, 2010
TIME
LST
Temp Definition
°C
Dew Point Definition
°C
Rel Hum Definition
%
Precip. Amount Definition
mm

Wind Dir Definition
10's deg

Wind Spd Definition
km/h
Visibility Definition
km
Stn Press Definition
kPa
Hmdx Definition


Wind Chill Definition


Weather Definition


00:00 4.0 1.6 84   35 6   101.52     LegendNANA
01:00 3.5 1.4 86   33 7   101.52     LegendNANA
02:00 3.9 2.1 88   34 7   101.54     LegendNANA
03:00 4.5 2.0 84   33 11   101.54     LegendNANA
04:00 3.9 1.3 83   32 11   101.54     LegendNANA
05:00 3.9 0.9 81   34 9   101.55     LegendNANA
06:00 5.9 1.4 73   33 11   101.57     LegendNANA
07:00 8.1 2.7 69   31 11   101.61     LegendNANA
08:00 10.5 2.5 58   32 19   101.62     LegendNANA
09:00 12.5 2.2 49   31 13   101.63     LegendNANA
10:00 15.0 2.8 44   32 9   101.60     LegendNANA
11:00 15.7 0.1 35   1 7   101.59     LegendNANA
12:00 16.6 -0.4 31   36 15   101.59     LegendNANA
13:00 17.8 2.0 35   1 11   101.58     LegendNANA
14:00 17.8 0.2 30   3 19   101.60     LegendNANA
15:00 18.0 -0.2 29   2 20   101.62     LegendNANA
16:00 17.6 -0.6 29   4 19   101.63     LegendNANA
17:00 16.6 -1.0 30   4 19   101.68     LegendNANA
18:00 14.7 0.4 38   3 13   101.73     LegendNANA
19:00 12.2 1.0 46   2 13   101.80     LegendNANA
20:00 10.7 1.4 53   5 11   101.85     LegendNANA
21:00 9.6 2.0 59   5 9   101.87     LegendNANA
22:00 7.6 2.2 69   33 9   101.90     LegendNANA
23:00 6.3 2.0 74   26 2   101.92     LegendNANA

Notes on Data Quality.

Legend

  • E = Estimated
  • M = Missing
  • NA = Not Available*
  • [empty] = Indicates an unobserved value
Date modified: